Regional Weather Roundup
Issued by NWS Sioux Falls, SD

Home | Current Version | Previous Version | Graphics & Text | Print | Product List | Glossary Off
Versions: 1 2 3 4 5 6 7 8 9 10 11 12 13 14 15 16 17 18 19 20 21 22 23 24 25 26 27 28 29 30 31 32 33 34 35 36 37 38 39 40 41 42 43 44 45 46 47 48 49 50

000
ASUS43 KFSD 220502
RWRFSD

WEATHER ROUNDUP FOR SE SOUTH DAKOTA/SW MINNESOTA/NW IOWA
NATIONAL WEATHER SERVICE SIOUX FALLS SD
1200 AM CDT SUN OCT 22 2017

NOTE: "FAIR" INDICATES FEW OR NO CLOUDS BELOW 12,000 FEET WITH NO
SIGNIFICANT WEATHER AND OR OBSTRUCTIONS TO VISIBILITY.


SDZ038>040-050-052>070-220600-
SOUTHEAST SOUTH DAKOTA

CITY           SKY/WX    TMP DP  RH WIND       PRES   REMARKS
BROOKINGS      CLEAR     43  38  82 W12       29.92R
CHAMBERLAIN    CLEAR     41  34  76 SW7       29.97R
HURON          PTCLDY    43  36  76 SW10      29.93R
MADISON        FAIR      45  37  76 W12G17    29.94R
MITCHELL       CLEAR     44  36  73 SW8       29.96R
SIOUX FALLS    CLEAR     45  38  76 W5        29.95R
WINNER         FAIR      44  29  55 SW7       29.98R
YANKTON        CLEAR     42  35  76 W7        29.97R
$$

MNZ071-072-080-081-089-090-097-098-220600-
SOUTHWEST MINNESOTA

CITY           SKY/WX    TMP DP  RH WIND       PRES   REMARKS
FAIRMONT       CLOUDY    49  42  77 W8        29.92R
JACKSON        PTCLDY    45  37  76 W8        29.94R
LUVERNE        CLEAR     43  36  75 W7        29.95R
MARSHALL       CLEAR     47  39  74 W10       29.89R
MONTEVIDEO     CLEAR     46  39  76 W6        29.85R
PIPESTONE      CLEAR     43  37  81 W7        29.92R
REDWOOD FALLS  CLEAR     47  40  76 SW8       29.88R
TRACY          CLEAR     46  41  81 SW7       29.90R
WORTHINGTON    PTCLDY    43  39  86 SW8       29.94R
$$

IAZ001>003-012>014-020>022-031-032-NEZ013-014-SDZ071-220600-
NORTHWEST IOWA

CITY           SKY/WX    TMP DP  RH WIND       PRES   REMARKS
CHEROKEE       MOCLDY    44  40  88 CALM      29.96R
DENISON        CLOUDY    48  41  76 CALM      29.99S
ESTHERVILLE    MOCLDY    45  42  89 W6        29.93R
LE MARS        CLOUDY    41  39  93 CALM      29.95F
ORANGE CITY    PTCLDY    43  39  87 W6        29.94F
SHELDON        CLEAR     41  39  93 W6        29.93R
SIOUX CITY     PTCLDY    42  39  89 CALM      29.97R
SPENCER        CLOUDY    44  40  85 SW5       29.95R
STORM LAKE     CLOUDY    45  41  87 W5        29.96R
$$

ABBREVIATIONS USED IN REMARKS
   TC - TEMPERATURE IN CELSIUS
  WCI - WIND CHILL INDEX
   HX - HEAT INDEX
  VSB - VISIBILITY





USA.gov is the U.S. government's official web portal to all federal, state and local government web resources and services.